Lid_Strength_Index
11 11 11 11 11 11 12 11 14 12 13 10 9 8 8 7 7 7 7 5 5 5 5 4 3 3 2 2 2 1 2 2 2 1 1 1 1 1 0 0 0 0 0 0
13 10 11 12 10 10 10 10 11 11 12 9 8 8 8 7 8 8 6 5 5 5 5 4 3 3 3 2 2 1 2 2 1 1 1 1 1 1 1 1 0 0 1 1
15 11 12 14 11 10 10 9 9 13 10 8 9 9 8 7 7 6 5 5 5 5 4 4 3 3 3 2 1 2 2 2 2 1 1 1 1 1 1 1 1 1 1 1
15 13 19 11 9 10 11 10 9 8 9 8 8 7 6 5 6 6 5 5 5 4 4 3 2 2 2 2 2 2 2 2 2 1 2 1 1 1 1 1 1 1 1 1
17 17 14 12 11 12 13 12 8 9 7 8 7 6 6 5 6 5 4 4 4 3 3 3 3 2 2 2 2 2 2 2 2 1 2 1 2 1 1 1 1 1 1 1
15 18 19 14 10 9 9 16 8 8 7 7 7 11 8 5 4 4 4 3 3 3 3 3 2 2 2 2 2 2 2 2 1 1 1 2 1 1 1 1 1 1 1 1
15 17 14 10 9 9 16 15 8 8 8 8 9 8 6 5 5 4 4 3 3 3 3 3 2 2 3 2 3 2 1 1 1 1 1 1 1 1 1 1 1 1 1 1
15 17 18 8 10 13 10 8 8 7 7 7 6 6 6 6 5 4 4 3 3 3 3 2 2 2 3 3 2 1 1 1 1 1 1 1 1 1 1 1 2 2 2 2
13 14 8 8 9 8 7 7 7 7 6 6 6 6 6 5 5 4 4 3 3 3 3 2 2 2 3 2 1 1 1 2 1 1 1 1 1 1 2 2 2 2 2 2
12 10 9 8 7 7 6 6 6 5 5 5 7 6 6 5 5 4 4 4 3 3 3 3 2 2 2 2 1 1 2 2 1 2 2 1 1 1 2 2 2 2 2 3
11 9 8 8 7 6 6 5 6 5 5 5 6 6 5 5 5 4 4 3 3 3 3 3 2 2 1 1 1 2 2 2 2 2 2 2 1 1 1 1 2 2 2 2
13 8 9 8 7 6 7 7 6 6 5 5 5 6 5 5 4 4 4 3 3 3 3 3 2 2 2 1 1 2 2 2 2 2 2 2 2 2 12 9 10 9 8 4
9 7 7 6 6 6 7 7 6 7 6 6 5 5 5 5 4 5 3 3 3 3 3 2 2 2 1 1 1 2 2 2 2 3 2 2 2 2 3 6 12 12 12 11
5 7 8 8 8 7 7 7 6 7 8 7 6 6 5 6 5 5 5 4 3 3 3 2 2 2 1 1 1 1 1 7 2 2 2 2 2 2 2 2 3 2 11 9
5 6 8 8 8 8 8 8 9 9 9 8 7 7 6 6 7 7 5 5 5 5 4 3 3 2 1 1 1 1 2 2 1 1 1 2 2 2 2 2 2 2 5 10
5 6 7 9 9 9 9 9 10 10 9 8 8 8 7 7 7 7 7 7 6 6 6 7 6 4 1 1 1 1 1 6 4 1 2 2 2 2 2 2 2 2 2 2
6 7 8 9 10 10 10 9 10 10 9 9 9 8 8 8 8 8 8 7 7 8 7 7 6 4 2 1 1 1 1 2 7 1 2 2 2 2 2 2 2 2 2 3
4 4 6 7 9 10 10 10 9 10 10 9 9 9 9 9 10 10 10 9 7 9 9 8 9 6 3 2 1 1 1 1 1 2 2 2 2 2 2 2 2 2 2 4
4 4 5 6 7 9 9 9 9 10 10 10 10 11 11 11 10 10 11 12 12 11 11 9 11 7 4 6 4 1 1 2 2 2 1 5 2 1 2 2 2 1 1 1
4 4 4 5 7 8 10 10 10 10 10 9 10 10 11 12 11 11 10 13 13 13 11 10 10 8 7 6 7 1 1 1 2 2 2 2 2 2 2 5 2 1 1 1
4 4 4 5 6 7 9 10 10 11 10 10 11 11 12 11 12 13 13 14 14 13 11 12 11 11 9 9 6 3 2 2 2 2 2 2 1 1 1 1 1 1 1 1
3 4 4 5 6 7 8 9 10 10 11 11 11 11 12 12 12 12 13 14 13 16 13 12 12 15 13 12 8 8 7 6 4 3 2 2 2 2 2 2 2 1 1 1
3 3 4 5 6 7 7 8 10 10 11 12 12 12 13 13 13 13 14 13 12 13 12 13 16 16 15 10 11 10 10 9 8 8 8 7 6 6 6 6 6 6 5 5
3 3 4 4 5 6 7 7 9 10 10 11 11 12 12 12 12 12 12 14 15 13 13 14 14 15 13 12 12 13 13 11 11 10 10 12 10 10 10 9 9 9 9 10
3 3 4 4 5 6 6 7 8 9 10 11 11 11 11 12 13 13 12 13 14 13 12 14 15 14 12 13 13 13 14 14 13 12 12 12 12 12 11 12 13 12 12 12
3 3 4 4 4 5 6 6 8 8 9 10 11 11 11 11 11 12 13 13 13 13 13 12 12 12 13 13 13 14 13 14 14 14 14 13 14 14 13 13 13 13 13 13
3 5 4 5 5 5 5 6 7 9 9 9 10 10 10 11 11 12 12 12 12 12 12 13 13 13 13 13 13 13 13 14 14 13 13 13 13 14 14 14 14 14 14 15